Regional Weather Roundup
Issued by NWS Newport/Morehead, NC

Current Version | Previous Version | Graphics & Text | Print | Product List | Glossary Off
Versions: 1 2 3 4 5 6 7 8 9 10 11 12 13 14 15 16 17 18 19 20 21 22 23 24 25 26 27 28 29 30 31 32 33 34 35 36 37 38 39 40 41 42 43 44 45 46 47 48 49 50

730
ASUS42 KMHX 230325
RWRMHX
WEATHER ROUNDUP FOR EASTERN NORTH CAROLINA
NATIONAL WEATHER SERVICE NEWPORT/MOREHEAD CITY NC
1000 PM EST WED FEB 22 2017

NOTE: "FAIR" INDICATES FEW OR NO CLOUDS BELOW 12,000 FEET
WITH NO SIGNIFICANT WEATHER AND/OR OBSTRUCTIONS TO VISIBILITY

NCZ015>017-031-032-045>047-102-103-230400-
NORTH COAST

CITY           SKY/WX    TMP DP  RH WIND       PRES   REMARKS
EDENTON        CLOUDY    61  54  77 S6        29.96F
ELIZABETH CITY CLOUDY    58  51  78 SE6       29.97S
KITTY HAWK     NOT AVBL
MANTEO         MOCLDY    60  50  71 S7        29.98S

$$

NCZ045>047-081-094-103-104-230400-
CENTRAL COAST

CITY           SKY/WX    TMP DP  RH WIND       PRES   REMARKS
FRISCO         CLOUDY    64  54  69 VRB3      29.97F

$$

NCZ095-097-098-100-101-230400-
SOUTHERN COAST

CITY           SKY/WX    TMP DP  RH WIND       PRES   REMARKS
BEAUFORT       CLOUDY    60  54  80 CALM      29.96F
CEDAR ISLAND   NOT AVBL
JACKSONVILLE   CLOUDY    59  55  87 SE3       29.94F
PINEY ISLAND   PTCLDY   N/A N/A N/A CALM      29.96S
WILMINGTON     MOCLDY    59  54  83 E3        29.94F


$$

NCZ011>013-027>030-043-044-078>080-089-090>093-098-230400-
COASTAL PLAIN

CITY           SKY/WX    TMP DP  RH WIND       PRES   REMARKS
AHOSKIE          N/A     55  52  92 CALM      29.96S
CLINTON        CLOUDY    61  55  81 CALM      29.95F
ELIZABETHTOWN  CLOUDY    60  54  79 CALM      29.94F
GOLDSBORO      CLOUDY    62  55  77 SE3       29.94S
GREENVILLE     CLOUDY    61  54  77 S5        29.98S
HAVELOCK       NOT AVBL
KENANSVILLE    NOT AVBL
KINSTON        CLOUDY    60  53  78 CALM      29.96F
NEW BERN       CLOUDY    54  52  93 CALM      29.97S
RICHLANDS      CLOUDY    53  51  93 CALM      29.96F
ROCKY MOUNT    CLOUDY    57  54  89 CALM      29.95S
WASHINGTON     CLOUDY    58  52  79 SE6       29.96F
WHITEVILLE     MOCLDY    62  53  72 CALM      29.93F

$$

AMZ130-135-150-152-154-156-158-170-250-252-270-ANZ085-086-088-633-658-670-230400-
MARINE OBSERVATIONS

STATION/POSITION TIME  TEMP    WIND        PRES    WAVE   SWELL
                       AIR SEA DIR/SP/G            HT/PER HT/PER
                 (UTC) (F)     (DEG/KT/KT) (MB)    (FT/S) (FT/S)
CHESAPEAKE LIGHT NOT AVBL
64 E VA BEACH    0250   58 54  170/  6/  6 1015.0    3/ 9   3/ 9
DUCK             0218   53 48  150/ 10/ 10 1014.4
2 E DUCK         0300      50                N/A     3/11   2/11
OREGON INLET     0300   56 54  120/  5/  7 1014.9
13E OREGON INLT  NOT AVBL
HATTERAS CG      0300   61 60  340/  2/  2 1014.5
DIAMOND BUOY     0250   68 74  160/ 12/ 16 1014.9    3/ 9   3/ 9
CAPE LOOKOUT     0300   65     160/ 10/ 10 1014.1
BEAUFORT LAB     0300   60 54     CALM     1013.4
30 SE NEW RVR IN 0308   68     150/ 12/ 16 1014.1
30 SE NEW RVR IN 0243      69                N/A     4/ 8   2/11
27 SE WRIGHTSVLE 0308   67 65  130/  8/ 10 1013.1
5 SE WRIGHTSVLE  0308   60 58   90/  4/  8 1013.8
225 S CAPE HAT   0250   67 70  110/ 17/ 21 1014.5    5/11   3/11
41 SE CHARLESTON 0250   70 70  110/ 16/ 19 1011.3    6/ 7   2/ 8

$$




USA.gov is the U.S. government's official web portal to all federal, state and local government web resources and services.